Location: Stuttgart
(48.7824°N, 9.1964°E)
Time: 17:09:52
(UTC+01:00)

ISS - Pass Details

Date: 01 February 2019
Orbit: 403 x 411 km, 51.6° (Epoch: 20 February)

Event Time Altitude Azimuth Distance (km) Brightness Sun altitude
Rises 18:54:25 0° 282° (WNW) 2,337 1.4 -15.6°
Reaches altitude 10° 18:56:33 10° 287° (WNW) 1,477 0.0 -15.9°
Maximum altitude 18:59:47 50° 5° (N) 529 -3.4 -16.5°
Enters shadow 19:00:32 40° 49° (NE) 617 -3.3 -16.6°
